When you browse on this site, cookies collect data to enhance your experience and personalize the content and advertising you see.
Visit our Privacy Policy to learn more. By continuing to use the site, you agree to this use of cookies and data.
  • In France
  • List of Countries
  • For 7 days
  • Water Temperature
  • Satellite Maps
  • Weather Map
  • Weather Widgets
  • user-avatar
    Login

    Hourly Weather Nantes

    Today, 20 April, Saturday

    Time Temperature Precipitation Wind Pressure Humidity
    00:00 +14°C° 0 mm 2 mps 768 mmHg 91%
    01:00 +14°C° 0 mm 2 mps 768 mmHg 92%
    02:00 +13°C° 0 mm 2 mps 768 mmHg 92%
    03:00 +13°C° 0 mm 2 mps 767 mmHg 93%
    04:00 +12°C° 0 mm 3 mps 767 mmHg 93%
    05:00 +12°C° 0 mm 3 mps 767 mmHg 93%
    06:00 +11°C° 0 mm 3 mps 767 mmHg 93%
    07:00 +13°C° 0 mm 3 mps 767 mmHg 88%
    08:00 +15°C° 0 mm 4 mps 767 mmHg 82%
    09:00 +18°C° 0 mm 4 mps 767 mmHg 77%
    10:00 +19°C° 0 mm 4 mps 767 mmHg 73%
    11:00 +21°C° 0 mm 5 mps 767 mmHg 69%
    12:00 +22°C° 0 mm 5 mps 766 mmHg 65%
    13:00 +22°C° 0.2 mm 5 mps 766 mmHg 66%
    14:00 +22°C° 0.2 mm 5 mps 766 mmHg 68%
    15:00 +22°C° 0.2 mm 6 mps 765 mmHg 69%
    16:00 +21°C° 0.2 mm 5 mps 765 mmHg 73%
    17:00 +20°C° 0.2 mm 4 mps 765 mmHg 77%
    18:00 +20°C° 0.2 mm 3 mps 765 mmHg 82%
    19:00 +18°C° 0 mm 3 mps 765 mmHg 84%
    20:00 +17°C° 0 mm 3 mps 765 mmHg 87%
    21:00 +14°C° 0 mm 3 mps 766 mmHg 89%
    22:00 +14°C° 0 mm 3 mps 765 mmHg 90%
    23:00 +13°C° 0 mm 3 mps 765 mmHg 91%

    Tomorrow, 21 April, Sunday

    Time Temperature Precipitation Wind Pressure Humidity
    00:00 +12°C° 0 mm 3 mps 765 mmHg 93%
    01:00 +12°C° 0 mm 3 mps 765 mmHg 93%
    02:00 +12°C° 0 mm 3 mps 764 mmHg 93%
    03:00 +11°C° 0 mm 3 mps 764 mmHg 93%
    04:00 +11°C° 0 mm 3 mps 764 mmHg 93%
    05:00 +11°C° 0 mm 3 mps 764 mmHg 93%
    06:00 +12°C° 0 mm 2 mps 764 mmHg 93%
    07:00 +14°C° 0 mm 2 mps 763 mmHg 88%
    08:00 +16°C° 0 mm 2 mps 763 mmHg 84%
    09:00 +18°C° 0 mm 2 mps 763 mmHg 79%
    10:00 +19°C° 0.9 mm 2 mps 763 mmHg 75%
    11:00 +20°C° 0.9 mm 2 mps 762 mmHg 71%
    12:00 +22°C° 0.9 mm 1 mps 762 mmHg 67%
    13:00 +22°C° 0.8 mm 1 mps 761 mmHg 67%
    14:00 +22°C° 0.8 mm 1 mps 761 mmHg 67%
    15:00 +22°C° 0.8 mm 1 mps 760 mmHg 67%
    16:00 +21°C° 0.3 mm 1 mps 760 mmHg 72%
    17:00 +21°C° 0.3 mm 1 mps 759 mmHg 76%
    18:00 +20°C° 0.3 mm 1 mps 759 mmHg 81%
    19:00 +19°C° 0.1 mm 1 mps 759 mmHg 84%
    20:00 +16°C° 0.1 mm 1 mps 759 mmHg 87%
    21:00 +15°C° 0.1 mm 1 mps 759 mmHg 90%
    22:00 +14°C° 0 mm 1 mps 758 mmHg 91%
    23:00 +14°C° 0 mm 1 mps 758 mmHg 91%

    Day after tomorrow, 22 April, Monday

    Time Temperature Precipitation Wind Pressure Humidity
    00:00 +13°C° 0 mm 1 mps 757 mmHg 92%
    01:00 +13°C° 0 mm 1 mps 756 mmHg 91%
    02:00 +12°C° 0 mm 1 mps 756 mmHg 91%
    03:00 +12°C° 0 mm 1 mps 755 mmHg 90%
    04:00 +12°C° 0 mm 2 mps 754 mmHg 90%
    05:00 +12°C° 0 mm 2 mps 754 mmHg 90%
    06:00 +12°C° 0 mm 2 mps 753 mmHg 91%
    07:00 +14°C° 0 mm 2 mps 753 mmHg 86%
    08:00 +16°C° 0 mm 2 mps 752 mmHg 82%
    09:00 +18°C° 0 mm 2 mps 752 mmHg 78%
    10:00 +18°C° 0.7 mm 2 mps 751 mmHg 76%
    11:00 +19°C° 0.7 mm 2 mps 751 mmHg 74%
    12:00 +20°C° 0.7 mm 3 mps 750 mmHg 72%
    13:00 +20°C° 0 mm 2 mps 749 mmHg 68%
    14:00 +20°C° 0 mm 2 mps 749 mmHg 64%
    15:00 +22°C° 0 mm 1 mps 748 mmHg 60%
    16:00 +21°C° 0.3 mm 1 mps 748 mmHg 66%
    17:00 +20°C° 0.3 mm 1 mps 747 mmHg 73%
    18:00 +19°C° 0.3 mm 1 mps 747 mmHg 79%
    19:00 +18°C° 0 mm 1 mps 747 mmHg 81%
    20:00 +16°C° 0 mm 2 mps 747 mmHg 82%
    21:00 +16°C° 0 mm 2 mps 747 mmHg 83%
    22:00 +15°C° 0 mm 2 mps 747 mmHg 85%
    23:00 +15°C° 0 mm 2 mps 746 mmHg 86%

    23 April, Tuesday

    Time Temperature Precipitation Wind Pressure Humidity
    00:00 +15°C° 0 mm 2 mps 746 mmHg 87%
    01:00 +14°C° 0 mm 2 mps 745 mmHg 88%
    02:00 +12°C° 0 mm 3 mps 745 mmHg 89%
    03:00 +11°C° 0 mm 3 mps 745 mmHg 90%
    04:00 +11°C° 0 mm 3 mps 745 mmHg 90%
    05:00 +11°C° 0 mm 3 mps 744 mmHg 89%
    06:00 +11°C° 0 mm 3 mps 744 mmHg 89%
    07:00 +13°C° 0 mm 4 mps 744 mmHg 85%
    08:00 +14°C° 0 mm 4 mps 744 mmHg 81%
    09:00 +16°C° 0 mm 5 mps 744 mmHg 77%
    10:00 +17°C° 0 mm 5 mps 744 mmHg 75%
    11:00 +19°C° 0 mm 4 mps 744 mmHg 73%
    12:00 +20°C° 0 mm 4 mps 744 mmHg 72%
    13:00 +20°C° 0.2 mm 4 mps 744 mmHg 72%
    14:00 +20°C° 0.2 mm 4 mps 744 mmHg 73%
    15:00 +20°C° 0.2 mm 5 mps 744 mmHg 73%
    16:00 +19°C° 0.1 mm 5 mps 744 mmHg 78%
    17:00 +17°C° 0.1 mm 4 mps 745 mmHg 82%
    18:00 +15°C° 0.1 mm 4 mps 745 mmHg 86%
    19:00 +14°C° 0 mm 4 mps 746 mmHg 90%
    20:00 +12°C° 0 mm 4 mps 746 mmHg 93%
    21:00 +11°C° 0 mm 3 mps 747 mmHg 97%
    22:00 +11°C° 0 mm 3 mps 747 mmHg 97%
    23:00 +10°C° 0 mm 3 mps 748 mmHg 97%

    24 April, Wednesday

    Time Temperature Precipitation Wind Pressure Humidity
    00:00 +10°C° 0 mm 2 mps 748 mmHg 98%
    01:00 +10°C° 0 mm 3 mps 748 mmHg 97%
    02:00 +10°C° 0 mm 3 mps 749 mmHg 96%
    03:00 +10°C° 0 mm 3 mps 749 mmHg 95%
    04:00 +10°C° 0 mm 3 mps 749 mmHg 94%
    05:00 +10°C° 0 mm 3 mps 750 mmHg 93%
    06:00 +9°C° 0 mm 3 mps 750 mmHg 92%
    07:00 +10°C° 0 mm 3 mps 750 mmHg 87%
    08:00 +12°C° 0 mm 3 mps 751 mmHg 83%
    09:00 +13°C° 0 mm 3 mps 751 mmHg 78%
    10:00 +14°C° 0.1 mm 4 mps 751 mmHg 73%
    11:00 +15°C° 0.1 mm 5 mps 751 mmHg 68%
    12:00 +16°C° 0.1 mm 6 mps 751 mmHg 63%
    13:00 +16°C° 0 mm 7 mps 751 mmHg 61%
    14:00 +16°C° 0 mm 7 mps 751 mmHg 59%
    15:00 +16°C° 0 mm 8 mps 751 mmHg 57%
    16:00 +15°C° 0 mm 6 mps 751 mmHg 62%
    17:00 +14°C° 0 mm 5 mps 751 mmHg 67%
    18:00 +13°C° 0 mm 3 mps 751 mmHg 72%
    19:00 +12°C° 0 mm 3 mps 751 mmHg 75%
    20:00 +10°C° 0 mm 4 mps 752 mmHg 78%
    21:00 +8°C° 0 mm 4 mps 752 mmHg 81%
    22:00 +8°C° 0 mm 4 mps 752 mmHg 83%
    23:00 +8°C° 0 mm 5 mps 751 mmHg 84%

    25 April, Thursday

    Time Temperature Precipitation Wind Pressure Humidity
    00:00 +8°C° 0 mm 5 mps 751 mmHg 86%
    01:00 +8°C° 0 mm 5 mps 751 mmHg 87%
    02:00 +9°C° 0 mm 5 mps 751 mmHg 87%
    03:00 +10°C° 0 mm 4 mps 750 mmHg 88%
    04:00 +9°C° 0.9 mm 5 mps 751 mmHg 90%
    05:00 +9°C° 0.9 mm 5 mps 751 mmHg 92%
    06:00 +9°C° 0.9 mm 6 mps 751 mmHg 94%
    07:00 +9°C° 0.5 mm 5 mps 752 mmHg 90%
    08:00 +11°C° 0.5 mm 4 mps 752 mmHg 87%
    09:00 +11°C° 0.5 mm 3 mps 753 mmHg 84%
    10:00 +12°C° 0.6 mm 4 mps 753 mmHg 83%
    11:00 +12°C° 0.6 mm 5 mps 754 mmHg 83%
    12:00 +13°C° 0.6 mm 5 mps 754 mmHg 82%
    13:00 +12°C° 0.9 mm 5 mps 755 mmHg 84%
    14:00 +10°C° 0.9 mm 5 mps 755 mmHg 86%
    15:00 +9°C° 0.9 mm 5 mps 756 mmHg 88%
    16:00 +9°C° 0.1 mm 5 mps 757 mmHg 84%
    17:00 +9°C° 0.1 mm 5 mps 758 mmHg 81%
    18:00 +9°C° 0.1 mm 5 mps 759 mmHg 77%
    19:00 +8°C° 0 mm 5 mps 760 mmHg 79%
    20:00 +7°C° 0 mm 4 mps 761 mmHg 81%
    21:00 +6°C° 0 mm 4 mps 762 mmHg 83%
    22:00 +6°C° 0 mm 4 mps 763 mmHg 84%
    23:00 +7°C° 0 mm 3 mps 764 mmHg 86%
    Show more